Effective Sunday, March 17, 2024, the National Weather Service National Data Buoy Center will discontinue its Dial-A-Buoy Interactive Voice Response system. For more information, see Service Change Notice 24-06 (PDF).

Station GTXF1 - Pellicer Creek, Guana Tolomato Matanzas Reserve, FL Image indicating link to RSS feed of recent meteorological observations for station GTXF1


Conditions at GTXF1 as of
(11:45 pm EST on 02/22/2024)
0445 GMT on 02/23/2024:
     

Click on the graph icon in the table below to see a time series plot of the last five days of that observation.

5-day plot - Wind Direction Wind Direction (WDIR): SW ( 220 deg true )
5-day plot - Wind Speed Wind Speed (WSPD): 1.0 kts
5-day plot - Atmospheric Pressure Atmospheric Pressure (PRES):29.97 in
5-day plot - Air Temperature Air Temperature (ATMP): 51.4 °F
5-day plot - Dew Point Dew Point (DEWP): 42.1 °F
5-day plot -  Wind Speed, Wind Gust and Atmospheric Pressure Combined plot of Wind Speed, Gust, and Air Pressure
Previous observations
TIME
(EST)
5-day plot - Wind Direction
WDIR
 
5-day plot - Wind Speed
WSPD
kts
5-day plot - Wind Gust
GST
kts
5-day plot - Wave Height
WVHT
ft
5-day plot - Dominant Wave Period
DPD
sec
5-day plot - Average Wave Period
APD
sec
5-day plot - Mean Wave Direction
MWD
 
5-day plot - Atmospheric Pressure
PRES
in
5-day plot - Pressure Tendency
PTDY
in
5-day plot - Air Temperature
ATMP
°F
5-day plot - Water Temperature
WTMP
°F
5-day plot - Dew Point
DEWP
°F
5-day plot - Salinity
SAL
psu
5-day plot - Visibility
VIS
nmi
5-day plot - Tide (above MLLW)
TIDE
ft
2024-02-22 11:30 pmSSW 1.0-----29.97- 51.8- 44.6---
2024-02-22 11:15 pmSSW 1.0-----29.97- 51.3- 45.3---
2024-02-22 11:00 pmSSW 1.9-----30.00+0.00 53.8- 45.9---
2024-02-22 10:45 pm S 1.9-----30.00- 54.1- 47.8---
2024-02-22 10:30 pm S 1.9-----30.00- 54.1- 49.8---
2024-02-22 10:15 pmSSW 1.9-----30.00- 54.9- 50.9---
2024-02-22 10:00 pmSSW 1.9-----30.00+0.00 55.9- 51.6---
2024-02-22 09:45 pmSSW 1.9-----30.00- 56.7- 52.0---
2024-02-22 09:30 pmSSW 1.9-----30.00- 57.6- 52.9---
2024-02-22 09:15 pmSSW 2.9-----30.00- 57.9- 53.2---
2024-02-22 09:00 pm S 2.9-----30.00-0.03 58.6- 53.6---
2024-02-22 08:45 pm S 2.9-----30.00- 58.5- 53.4---
2024-02-22 08:30 pm S 1.9-----30.00- 58.8- 53.4---
2024-02-22 08:15 pm S 2.9-----30.00- 59.5- 53.4---
2024-02-22 08:00 pm S 2.9-----30.00+0.00 60.3- 53.8---
2024-02-22 07:45 pm S 4.1-----30.00- 60.3- 53.8---
2024-02-22 07:30 pmSSE 4.1-----30.00- 60.4- 54.0---
2024-02-22 07:15 pm S 4.1-----30.00- 60.3- 53.8---
2024-02-22 07:00 pmSSE 2.9-----30.00-0.03 60.4- 53.6---
2024-02-22 06:45 pmSSE 2.9-----30.03- 60.6- 53.4---
2024-02-22 06:30 pmSSE 1.9-----30.03- 61.7- 53.8---
2024-02-22 06:15 pm SE 2.9-----30.03- 62.6- 54.0---
2024-02-22 06:00 pm SE 2.9-----30.03+0.00 63.5- 54.1---
2024-02-22 05:45 pm SE 4.1-----30.00- 64.2- 54.0---
2024-02-22 05:30 pm SE 4.1-----30.00- 64.8- 53.8---
2024-02-22 05:15 pm SE 5.1-----30.00- 65.5- 53.6---
2024-02-22 05:00 pm SE 5.1-----30.00-0.09 65.8- 53.1---
2024-02-22 04:45 pm SE 5.1-----30.00- 66.2- 53.1---
2024-02-22 04:30 pm SE 5.1-----30.00- 66.2- 53.4---
2024-02-22 04:15 pm SE 5.1-----30.03- 65.8- 53.1---
2024-02-22 04:00 pm SE 5.1-----30.03-0.09 65.8- 52.7---
2024-02-22 03:45 pm SE 5.1-----30.03- 66.0- 52.3---
2024-02-22 03:30 pm SE 5.1-----30.03- 66.0- 52.0---
2024-02-22 03:15 pm SE 5.1-----30.03- 66.0- 51.6---
2024-02-22 03:00 pmESE 5.1-----30.03-0.12 65.5- 51.1---
2024-02-22 02:45 pm E 5.1-----30.06- 64.8- 52.5---
2024-02-22 02:30 pm E 4.1-----30.06- 65.1- 52.0---
2024-02-22 02:15 pm E 5.1-----30.09- 64.8- 51.3---
2024-02-22 02:00 pm E 5.1-----30.09-0.09 64.2- 50.7---
2024-02-22 01:45 pmENE 4.1-----30.09- 65.3- 52.2---
2024-02-22 01:30 pmENE 4.1-----30.12- 64.9- 52.3---
2024-02-22 01:15 pm NE 5.1-----30.12- 64.4- 51.3---
2024-02-22 01:00 pm E 5.1-----30.12-0.06 64.4- 49.1---
2024-02-22 12:45 pm E 5.1-----30.12- 64.4- 49.5---
2024-02-22 12:30 pm NE 5.1-----30.15- 64.2- 50.7---
2024-02-22 12:15 pmENE 4.1-----30.15- 64.0- 49.6---
2024-02-22 12:00 pm NE 4.1-----30.15-0.06 63.5- 50.5---
2024-02-22 11:45 amNNE 4.1-----30.18- 63.1- 50.5---
2024-02-22 11:30 amNNE 2.9-----30.18- 62.4- 49.8---
2024-02-22 11:15 amNNE 2.9-----30.18- 62.6- 49.6---
2024-02-22 11:00 amNNE 2.9-----30.18-0.03 62.1- 49.1---
2024-02-22 10:45 amNNE 2.9-----30.18- 61.5- 48.9---
2024-02-22 10:30 amNNE 2.9-----30.18- 61.0- 48.9---
2024-02-22 10:15 amNNE 2.9-----30.21- 60.6- 49.8---
2024-02-22 10:00 amNNE 1.9-----30.18+0.00 59.5- 51.1---
2024-02-22 09:45 amNNE 1.9-----30.18- 58.3- 52.5---
2024-02-22 09:30 amNNE 1.9-----30.21- 56.8- 54.0---
2024-02-22 09:15 am N 1.9-----30.21- 55.0- 53.1---
2024-02-22 09:00 am N 1.9-----30.21+0.03 53.1- 51.6---
2024-02-22 08:45 am N 1.9-----30.21- 51.3- 49.8---
2024-02-22 08:30 am NW 1.0-----30.21- 49.8- 48.7---
2024-02-22 08:15 am- 0.0-----30.21- 47.7- 46.9---
2024-02-22 08:00 am- 0.0-----30.21+0.03 45.1- 44.4---
2024-02-22 07:45 am- 0.0-----30.21- 42.8- 42.1---
2024-02-22 07:30 am- 0.0-----30.18- 40.6- 39.9---
2024-02-22 07:15 am- 0.0-----30.18- 39.7- 38.7---
2024-02-22 07:00 am- 0.0-----30.18+0.00 39.4- 38.3---
2024-02-22 06:45 am- 0.0-----30.18- 39.9- 38.8---
2024-02-22 06:30 am SW 1.0-----30.18- 40.1- 39.0---
2024-02-22 06:15 am- 0.0-----30.18- 40.6- 39.6---
2024-02-22 06:00 amWSW 1.0-----30.18+0.00 41.2- 40.1---
2024-02-22 05:45 am W 1.0-----30.18- 40.8- 39.7---
2024-02-22 05:30 am- 0.0-----30.18- 40.1- 39.0---
2024-02-22 05:15 am- 0.0-----30.18- 40.5- 39.4---
2024-02-22 05:00 amWSW 1.0-----30.18-0.03 40.5- 39.4---
2024-02-22 04:45 amWSW 1.0-----30.18- 40.6- 39.6---
2024-02-22 04:30 am W 1.0-----30.18- 40.6- 39.6---
2024-02-22 04:15 amWSW 1.0-----30.18- 41.4- 40.3---
2024-02-22 04:00 am W 1.0-----30.18-0.03 41.5- 40.5---
2024-02-22 03:45 am W 1.0-----30.18- 41.2- 40.1---
2024-02-22 03:30 am- 0.0-----30.18- 41.7- 40.5---
2024-02-22 03:15 am W 1.0-----30.18- 43.0- 41.7---
2024-02-22 03:00 amWNW 1.9-----30.18-0.03 43.3- 42.1---
2024-02-22 02:45 amWNW 2.9-----30.21- 43.5- 42.3---
2024-02-22 02:30 am W 2.9-----30.21- 43.3- 42.3---
2024-02-22 02:15 am W 2.9-----30.21- 43.0- 41.9---
2024-02-22 02:00 am W 1.9-----30.21-0.03 42.3- 41.2---
2024-02-22 01:45 am W 1.0-----30.21- 40.6- 39.4---
2024-02-22 01:30 am- 0.0-----30.21- 40.8- 39.6---
2024-02-22 01:15 amWSW 1.0-----30.21- 41.2- 39.9---
2024-02-22 01:00 amWSW 1.0-----30.21-0.06 41.7- 40.5---
2024-02-22 12:45 amWSW 1.0-----30.21- 42.1- 40.8---
2024-02-22 12:30 am SW 1.0-----30.21- 42.3- 41.0---
2024-02-22 12:15 am W 1.0-----30.21- 43.9- 42.3---
2024-02-22 12:00 amWNW 1.0-----30.21-0.06 43.5- 42.3---